This is the latest recevied weather packets stored in our database for station/object p43g-13. If no packets are shown the sender has not sent any weather packets the latest 10 day(s).
| Time | Temp. | Humidity | Pressure | Rain* | Wind** | Luminosity | Snow |
|---|---|---|---|---|---|---|---|
| 1788126656 | 30.56° C | 77% | 1009.8 hPa | 0 mm | - | 78 W/m² | - |
| 1788126356 | 30.56° C | 77% | 1009.8 hPa | 0 mm | - | 84 W/m² | - |
| 1788126056 | 30.56° C | 76% | 1009.5 hPa | 0 mm | - | 101 W/m² | - |
| 1788125756 | 30.56° C | 76% | 1009.6 hPa | 0 mm | - | 112 W/m² | - |
| 1788125456 | 30.56° C | 77% | 1009.6 hPa | 0 mm | - | 129 W/m² | - |
| 1788125156 | 30.56° C | 76% | 1009.5 hPa | 0 mm | - | 129 W/m² | - |
| 1788124856 | 30.56° C | 76% | 1009.3 hPa | 0 mm | - | 151 W/m² | - |
| 1788124556 | 30.56° C | 75% | 1009.2 hPa | 0 mm | - | 169 W/m² | - |
| 1788124256 | 31.11° C | 75% | 1009.2 hPa | 0 mm | - | 188 W/m² | - |
| 1788123956 | 31.11° C | 73% | 1009.4 hPa | 0 mm | - | 207 W/m² | - |
| 1788123656 | 31.11° C | 74% | 1009.1 hPa | 0 mm | - | 232 W/m² | - |
| 1788123356 | 31.11° C | 74% | 1009.4 hPa | 0 mm | - | 232 W/m² | - |
| 1788123056 | 31.11° C | 75% | 1009.5 hPa | 0 mm | - | 298 W/m² | - |
| 1788122761 | 30.56° C | 75% | 1009.2 hPa | 0 mm | - | 336 W/m² | - |
| 1788122456 | 31.11° C | 76% | 1009.3 hPa | 0 mm | - | 378 W/m² | - |
| 1788122156 | 31.11° C | 75% | 1009.4 hPa | 0 mm | - | 332 W/m² | - |
| 1788121856 | 31.11° C | 75% | 1009.4 hPa | 0 mm | - | 382 W/m² | - |
| 1788121556 | 30.56° C | 75% | 1009.4 hPa | 0 mm | - | 413 W/m² | - |
| 1788121256 | 31.11° C | 74% | 1009.6 hPa | 0 mm | - | 172 W/m² | - |
| 1788120957 | 31.11° C | 74% | 1009.7 hPa | 0 mm | - | 378 W/m² | - |
| 1788120656 | 31.11° C | 74% | 1010 hPa | 0 mm | - | 199 W/m² | - |
| 1788120356 | 31.11° C | 74% | 1009.5 hPa | 0 mm | - | 418 W/m² | - |
| 1788120055 | 31.11° C | 74% | 1009.7 hPa | 0 mm | - | 569 W/m² | - |
| 1788119755 | 31.11° C | 76% | 1010 hPa | 0 mm | - | 557 W/m² | - |
| 1788119455 | 31.11° C | 75% | 1009.9 hPa | 0 mm | - | 241 W/m² | - |
* Rain latest hour (hover to see other rain measurements)
** Current wind speed in m/s (hover to see current wind gust speed)